Tracking 21094 objects as of 14-Aug-2020
HD Live streaming from Space Station
objects crossing your sky now
Track the most recent launched group of Starlink satellites

COSMOS 883

Track COSMOS 883 now!
10-day predictions
COSMOS 883 is classified as:


NORAD ID: 9610
Int'l Code: 1976-122A
Perigee: 958.6 km
Apogee: 1,011.2 km
Inclination: 83.0 °
Period: 104.6 minutes
Semi major axis: 7355 km
RCS: 1.9565 m2 (large)
Launch date: December 15, 1976
Source: Commonwealth of Independent States (former USSR) (CIS)
Launch site: PLESETSK MISSILE AND SPACE COMPLEX (PKMTR)
aabbcc
Your satellite tracking list
Your tracking list is empty




NASA's NSSDC Master Catalog

Two Line Element Set (TLE):
1  9610U 76122A   20226.04627612  .00000033  00000-0  18250-4 0  9990
2  9610  82.9513  46.5627 0035737  62.6976 297.7812 13.76092116191684
Source of the keplerian elements: AFSPC